Regional Weather Roundup
Issued by NWS

Home | Current Version | Previous Version | Graphics & Text | Print | Product List | Glossary On
Versions: 1 2 3 4 5 6 7 8 9 10 11 12 13 14 15 16 17 18 19 20 21 22 23 24 25 26 27 28 29 30 31 32 33 34 35 36 37 38 39 40 41 42 43 44 45 46 47 48 49 50
000
ASUS45 KABQ 221010
RWRNM
NEW MEXICO REGIONAL WEATHER ROUNDUP
NATIONAL WEATHER SERVICE ALBUQUERQUE NM
300 AM MST WED FEB 22 2017

NOTE: "FAIR" MEANS FEW OR NO CLOUDS BELOW 12,000 FEET AGL WITH NO
       SIGNIFICANT WEATHER OR OBSTRUCTIONS TO VISION.

      THIS PRODUCT IS RELEASED AS TWO VERSIONS.  ONE VERSION NEAR
      THE TOP OF THE HOUR CONTAINING PRELIMINARY DATA FROM ALBUQUERQUE
      AND OTHER STATIONS.  A FINAL VERSION WITH ADDITIONAL DATA IS
      ISSUED ABOUT 10 MINUTES AFTER THE HOUR.

NMZ501-503-504-510>518-221100-
NORTHWEST PLATEAU/NORTHCENTRAL MOUNTAINS

CITY           SKY/WX    TMP DP  RH WIND       PRES   REMARKS
FARMINGTON     FAIR      41  38  89 NE5       30.12F
LOS ALAMOS     FAIR      44  27  50 CALM      30.19F
SANTA FE       FAIR      33  26  75 CALM      30.15F
TAOS             N/A     30  18  59 SE10      30.17F WCI  21
ANGEL FIRE     FAIR      39  26  61 SW14      30.20F WCI  30

$$
NMZ402-403-502-505>509-221100-
WESTCENTRAL MOUNTAINS/SOUTHWEST MOUNTAINS

CITY           SKY/WX    TMP DP  RH WIND       PRES   REMARKS
GALLUP         FAIR      33  30  88 CALM      30.19F
GRANTS         FAIR      35  31  85 S12       30.20F WCI  26
SILVER CITY    FAIR      42  37  81 N8        30.21F

$$
NMZ407-409-411-412-221100-
SOUTHERN DESERTS

CITY           SKY/WX    TMP DP  RH WIND       PRES   REMARKS
DEMING         FAIR      45  36  70 SW6       30.16F
LAS CRUCES     FAIR      52  36  54 NW7       30.15F
HOLLOMAN AFB   FAIR      48  33  55 SE6       30.16F
ALAMOGORDO     FAIR      50  32  50 SE3       30.13F
T OR C         FAIR      55  35  47 NW13      30.15F

$$
NMZ519>523-221100-
CENTRAL VALLEYS/CENTRAL HIGHLANDS

CITY           SKY/WX    TMP DP  RH WIND       PRES   REMARKS
ALBUQUERQUE    FAIR      46  33  60 S7        30.15F
DOUBLE EAGLE   FAIR      38  31  74 CALM      30.16F
MORIARTY ARPT  FAIR      33  27  78 E5        30.17F WCI  28
CLINES CORNERS FAIR      35  24  64 W12       30.18F WCI  27
BELEN          FAIR      43  32  65 W7        30.16F
SOCORRO        FAIR      44  35  70 SW3       30.15F

$$
NMZ524>526-539-540-221100-
SOUTHCENTRAL MOUNTAINS

CITY           SKY/WX    TMP DP  RH WIND       PRES   REMARKS
RUIDOSO        FAIR      50  30  46 W16       30.20F

$$
NMZ527>531-221100-
NORTHEAST HIGHLANDS/NORTHEAST PLAINS

CITY           SKY/WX    TMP DP  RH WIND       PRES   REMARKS
RATON          FAIR      45  22  40 VRB7      30.05F
CLAYTON        FAIR      56  29  35 W16       29.97F

$$
NMZ532>537-221100-
EASTCENTRAL PLAINS

CITY           SKY/WX    TMP DP  RH WIND       PRES   REMARKS
TUCUMCARI      FAIR      50  26  39 W10       30.00F
CANNON AFB     FAIR      55  28  35 W12       30.03F
CLOVIS AIRPORT FAIR      54  28  37 W13       30.02S

$$
NMZ028-029-538-221100-
SOUTHEAST PLAINS

CITY           SKY/WX    TMP DP  RH WIND       PRES   REMARKS
ROSWELL        FAIR      49  30  48 W5          N/A
ARTESIA        FAIR      46  30  53 N5        30.05F
CARLSBAD       FAIR      63  32  31 W15G25    30.03S
HOBBS          FAIR      55  28  35 W12       30.05S


$$




USA.gov is the U.S. government's official web portal to all federal, state and local government web resources and services.